Concordia, KS

7:42 PM CST on December 06, 2019 (GMT -0600)
Blosser Municipal

Weather History for KCNK - October, 2019

Change the Weather History Date:

Saturday, October 19, 2019

  Actual Average Record
Temperature  
Mean Temperature 59 °F 54 °F  
Max Temperature 70 °F 66 °F 87 °F (1903)
Min Temperature 48 °F 43 °F 17 °F (1972)
Degree Days  
Heating Degree Days 6 11  
Month to date heating degree days 154 158  
Since 1 July heating degree days 157 231  
Cooling Degree Days 0 0  
Month to date cooling degree days 9 20  
Year to date cooling degree days 1657 1346  
Growing Degree Days 9 (Base 50)    
Moisture  
Dew Point 43 °F    
Average Humidity 56    
Maximum Humidity 86    
Minimum Humidity 26    
Precipitation  
Precipitation T in 0.07 in 1.25 in (1929)
Month to date precipitation 1.20 1.27  
Year to date precipitation 32.22 25.28  
Snow  
Snow 0.00 in 0.00 in T in (1976)
Month to date snowfall 0.0 0.0  
Year to date snowfall 32.3 13.7  
Since 1 July snowfall 0.0 0.0  
Snow Depth 0.00 in    
Sea Level Pressure  
Sea Level Pressure 29.77 in    
Wind  
Wind Speed 8 mph (NW)    
Max Wind Speed 15 mph    
Max Gust Speed 21 mph    
Visibility 10 miles    
Events Rain , Thunderstorm    
T = Trace of Precipitation, MM = Missing Value Source: NWS Daily Summary

Daily Weather History Graph

Daily Weather History Graph

Search for Another Location

Airport or City:

Astronomy

Oct. 19, 2019 Rise Set
Actual Time 7:44 AM CDT 6:45 PM CDT
Civil Twilight 7:17 AM CDT 7:13 PM CDT
Nautical Twilight 6:46 AM CDT 7:44 PM CDT
Astronomical Twilight 6:14 AM CDT 8:15 PM CDT
Moon 10:57 PM CDT (10/19) 1:17 PM CDT (10/19)
Length of Visible Light 11h 55m
Length of Day
11h 01m
Waning Gibbous, 69% of the Moon is Illuminated
Oct 19
Waning Gibbous
Oct 21
Last Quarter
Oct 27
New
Nov 4
First Quarter
Nov 12
Full

Hourly Weather History & Observations

Time (CDT) Temp. Dew Point Humidity Pressure Visibility Wind Dir Wind Speed Gust Speed Precip Events Conditions
12:04 AM 57.2 °F 53.6 °F 88% 29.71 in 9.0 mi NNW 9.2 mph - N/A Rain , Thunderstorm Light Rain
12:19 AM 57.0 °F 52.0 °F 83% 29.71 in 10.0 mi North 11.5 mph - 0.01 in Rain Light Rain
12:55 AM 55.9 °F 51.1 °F 84% 29.69 in 10.0 mi North 9.2 mph - 0.01 in   Mostly Cloudy
1:55 AM 55.0 °F 50.0 °F 83% 29.70 in 10.0 mi North 5.8 mph - 0.00 in   Overcast
2:55 AM 54.0 °F 48.9 °F 83% 29.69 in 10.0 mi North 9.2 mph 20.7 mph N/A   Scattered Clouds
3:55 AM 54.0 °F 46.9 °F 77% 29.71 in 10.0 mi North 9.2 mph - N/A   Overcast
4:55 AM 53.1 °F 46.9 °F 80% 29.74 in 10.0 mi NNW 9.2 mph - N/A   Scattered Clouds
5:55 AM 51.1 °F 46.0 °F 83% 29.75 in 10.0 mi NW 8.1 mph - N/A   Clear
6:55 AM 50.0 °F 45.0 °F 83% 29.78 in 10.0 mi NW 8.1 mph - N/A   Clear
7:55 AM 48.0 °F 44.1 °F 86% 29.80 in 10.0 mi WNW 6.9 mph - N/A   Clear
8:55 AM 51.1 °F 45.0 °F 80% 29.82 in 10.0 mi NW 9.2 mph - N/A   Clear
9:55 AM 54.0 °F 45.0 °F 72% 29.84 in 10.0 mi NW 10.4 mph - N/A   Clear
11:55 AM 63.0 °F 43.0 °F 48% 29.83 in 10.0 mi NNW 10.4 mph - N/A   Clear
12:55 PM 66.0 °F 41.0 °F 40% 29.83 in 10.0 mi North 12.7 mph - N/A   Clear
1:55 PM 68.0 °F 39.9 °F 36% 29.81 in 10.0 mi NW 8.1 mph 16.1 mph N/A   Clear
2:55 PM 68.0 °F 36.0 °F 31% 29.79 in 10.0 mi Variable 3.5 mph - N/A   Clear
3:55 PM 70.0 °F 35.1 °F 28% 29.77 in 10.0 mi NW 6.9 mph - N/A   Clear
4:55 PM 70.0 °F 33.1 °F 26% 29.76 in 10.0 mi Variable 3.5 mph - N/A   Clear
5:55 PM 68.0 °F 36.0 °F 31% 29.77 in 10.0 mi WSW 5.8 mph - N/A   Clear
6:55 PM 64.0 °F 37.0 °F 37% 29.78 in 10.0 mi SSW 3.5 mph - N/A   Clear
7:55 PM 55.0 °F 37.9 °F 53% 29.80 in 10.0 mi South 3.5 mph - N/A   Clear
8:55 PM 52.0 °F 37.9 °F 59% 29.81 in 10.0 mi South 8.1 mph - N/A   Clear
9:55 PM 54.0 °F 37.0 °F 53% 29.80 in 10.0 mi South 6.9 mph - N/A   Clear
10:55 PM 53.1 °F 37.0 °F 55% 29.80 in 10.0 mi South 10.4 mph - N/A   Clear
11:55 PM 53.1 °F 37.0 °F 55% 29.78 in 10.0 mi South 11.5 mph - N/A   Clear